Regional Weather Roundup
Issued by NWS Sioux Falls, SD

Home | Current Version | Previous Version | Graphics & Text | Print | Product List | Glossary On
Versions: 1 2 3 4 5 6 7 8 9 10 11 12 13 14 15 16 17 18 19 20 21 22 23 24 25 26 27 28 29 30 31 32 33 34 35 36 37 38 39 40 41 42 43 44 45 46 47 48 49 50
000
ASUS43 KFSD 311402
RWRFSD

WEATHER ROUNDUP FOR SE SOUTH DAKOTA/SW MINNESOTA/NW IOWA
NATIONAL WEATHER SERVICE SIOUX FALLS SD
900 AM CDT FRI JUL 31 2015

NOTE: "FAIR" INDICATES FEW OR NO CLOUDS BELOW 12,000 FEET WITH NO
SIGNIFICANT WEATHER AND OR OBSTRUCTIONS TO VISIBILITY.


SDZ038>040-050-052>070-311500-
SOUTHEAST SOUTH DAKOTA

CITY           SKY/WX    TMP DP  RH WIND       PRES   REMARKS
BROOKINGS      SUNNY     68  59  73 N3        30.19S
CHAMBERLAIN    SUNNY     70  58  66 NE5       30.18R
HURON          SUNNY     71  57  61 NE3       30.16S
MADISON        FAIR      68  61  77 NE6       30.18S
MITCHELL       SUNNY     70  61  73 CALM      30.17S
SIOUX FALLS    MOSUNNY   71  62  73 N3        30.17S
WINNER         FAIR      74  58  57 SE6       30.18S
YANKTON        SUNNY     72  66  83 CALM      30.13
$$

MNZ071-072-080-081-089-090-097-098-311500-
SOUTHWEST MINNESOTA

CITY           SKY/WX    TMP DP  RH WIND       PRES   REMARKS
FAIRMONT       MOSUNNY   70  55  60 NW6       30.14S
JACKSON        PTSUNNY   70  61  73 N3        30.17R
LUVERNE        MOSUNNY   70  63  78 CALM      30.17S
MARSHALL       SUNNY     72  54  53 NW8       30.17R
MONTEVIDEO     SUNNY     73  64  73 NW3       30.15S
PIPESTONE      SUNNY     72  55  56 NE5       30.18S
REDWOOD FALLS  SUNNY     70  57  63 W7        30.13S
TRACY          SUNNY     70  59  68 NW5       30.16S
WINDOM         SUNNY     70  59  68 CALM      30.16S
WORTHINGTON    MOSUNNY   70  57  64 NW3       30.18R
$$

IAZ001>003-012>014-020>022-031-032-NEZ013-014-SDZ071-311500-
NORTHWEST IOWA

CITY           SKY/WX    TMP DP  RH WIND       PRES   REMARKS
DENISON        SUNNY     72  66  83 CALM      30.14F HAZE
ESTHERVILLE    SUNNY     70  61  73 NW6       30.15S
SIOUX CITY     SUNNY     73  65  75 E5        30.15S
SPENCER        MOSUNNY   72  61  68 NW5       30.16S
$$

ABBREVIATIONS USED IN REMARKS
   TC - TEMPERATURE IN CELSIUS
  WCI - WIND CHILL INDEX
   HX - HEAT INDEX
  VSB - VISIBILITY




USA.gov is the U.S. government's official web portal to all federal, state and local government web resources and services.